Location: Cartersville (historical)
(42.9944°N, 93.0869°W)
Time: 16:38:01
(UTC+00:00)

Tiangong - Pass Details

Date: 12 October 2025
Orbit: 385 x 394 km, 41.5° (Epoch: 16 November)

Event Time Altitude Azimuth Distance (km) Brightness Sun altitude
Exits shadow 09:30:20 - 105° (ESE) 1,739 1.8 -31.8°
Enters shadow 10:26:56 -69° 256° (WSW) 12,281 5.5 -21.9°
Maximum altitude 11:04:14 41° 164° (SSE) 597 -1.1 -15.1°
